Location: Newark
(48.8604°N, 2.3376°E)
Time: 22:12:41
(UTC+00:00)

XW-2C - Pass Details

Date: 14 December 2021
Orbit: 503 x 523 km, 97.5° (Epoch: 19 January)

Event Time Altitude Azimuth Distance (km) Brightness Sun altitude
Rises 18:10:48 0° 213° (SSW) 2,632 ? -21.3°
Reaches altitude 10° 18:13:53 10° 242° (WSW) 1,757 ? -21.8°
Maximum altitude 18:15:43 13° 271° (W) 1,574 ? -22.1°
Drops below altitude 10° 18:17:34 10° 300° (WNW) 1,769 ? -22.4°
Sets 18:20:43 0° 329° (NNW) 2,668 ? -22.9°
